Location: Observatory
(49.4490°N, 2.6360°W)
Time: 13:58:19
(UTC+01:00)

DIWATA 2B (PO-101) - Pass Details

Date: 20 April 2025
Orbit: 567 x 578 km, 98.1° (Epoch: 15 May)

Event Time Altitude Azimuth Distance (km) Brightness Sun altitude
Rises 05:04:22 0° 150° (SSE) 2,765 ? -10.3°
Reaches altitude 10° 05:06:33 10° 145° (SE) 1,870 ? -9.9°
Maximum altitude 05:10:27 49° 70° (ENE) 742 ? -9.4°
Drops below altitude 10° 05:14:23 10° 356° (N) 1,880 ? -8.9°
Sets 05:16:34 0° 351° (N) 2,781 ? -8.5°
